Weather in Arak

Iran     34°05′34″N   49°42′53″E
temp.,
°C
wind,
m/s
gust,
m/s
humid.,
%
clouds,
%
prec.,
mm/h
press.,
hPa
HPBL,
m
24 july, sat
sat2401:30+25ssw11180 0.0 100211
04:30+23w22180 0.0 100311
07:30+24ne11190 0.0 100517
10:30+29ne22150 0.0 1004761
13:30+34ne46100 0.0 10023101
16:30+35ne871070 0.0 10003332
19:30+33e451372 0.0 10022104
22:30+28wsw112162 0.0 100514
25 july, sun
sun2501:30+27sse112450 0.0 100611
04:30+25se34204 0.0 100743
07:30+25se22204 0.0 100960
10:30+31ese46124 0.0 10081667
13:30+35e55105 0.0 10073660
16:30+36ene87951 0.0 10054442
19:30+33ene891227 0.0 10061885
22:30+29ese7121491 0.0 1009483
26 july, mon
mon2601:30+26ese221790 0.0 101122
04:30+24sse33165 0.0 101223
07:30+25se23183 0.0 101367
10:30+30e46130 0.0 10121612
13:30+33ene87130 0.0 10103080
16:30+34ne98101 0.0 10093445
19:30+31e89120 0.0 10102351
22:30+27ese511150 0.0 1012306
27 july, tue
tue2701:30+25sse33180 0.0 101221
04:30+22s22230 0.0 101212
07:30+24ese11230 0.0 101311
10:30+29ene36160 0.0 10112311
13:30+33ene76130 0.0 10083243
16:30+33ne64133 0.0 10063636
19:30+31ne76130 0.0 10062238
22:30+27se46210 0.0 1008124
28 july, wed
wed2801:30+25sse45260 0.0 1008102
04:30+23s33290 0.0 100727
07:30+24sse22280 0.0 100853
10:30+30ese35180 0.0 10061903
13:30+33e32153 0.0 10033693
16:30+34ene761364 0.0 10003944
19:30+32ne881361 0.0 10011875
22:30+28e5917100 0.0 1003356